Location: Newark
(7.0858°N, 171.3717°E)
Time: 14:13:51
(UTC+00:00)

Courier 1B Rocket - Pass Details

Date: 04 December 2020
Orbit: 920 x 1202 km, 28.2° (Epoch: 20 January)

Event Time Altitude Azimuth Distance (km) Brightness Sun altitude
Rises 12:54:58 0° 244° (WSW) 3,736 - -73.1°
Reaches altitude 10° 12:57:35 10° 245° (WSW) 2,825 - -72.8°
Maximum altitude 13:04:32 79° 331° (NNW) 1,109 - -72.0°
Drops below altitude 10° 13:12:02 10° 58° (ENE) 3,031 - -71.0°
Sets 13:14:55 0° 59° (ENE) 4,024 - -70.6°
